Location: ?er?an
(49.8491°N, 14.7064°E)
Time: 03:37:58
(UTC+00:00)

Daily predictions for brighter satellites

Satellite Brightness Start Highest point End
(mag) Time Altitude Azimuth Time Altitude Azimuth Time Altitude Azimuth
Cosmos 1544 4.3 00:03:28 31° WNW 00:03:29 31° WNW 00:06:45 10° N
Cosmos 2237 Rocket 4.3 00:04:01 10° WNW 00:06:09 12° W 00:06:31 12° W
ADEOS Rocket 3.8 00:02:28 15° SE 00:06:40 43° ENE 00:11:55 10° N
Cosmos 1818 4.2 00:02:32 10° NW 00:07:58 56° NE 00:13:21 10° ESE
Cosmos 2344 3.9 00:05:00 32° S 00:07:59 48° ESE 00:15:22 10° NE
SL-8 R/B 3.6 00:12:09 54° SW 00:13:00 66° SSE 00:17:46 10° E
Cosmos 2227 Rocket 3.4 00:11:27 18° WSW 00:14:56 34° NW 00:20:06 10° NNE
ATLAS CENTAUR R/B 1.4 00:15:07 55° SE 00:15:10 55° SE 00:19:08 10° NE
ADEOS II 3.8 00:12:37 10° NE 00:16:46 23° E 00:19:50 14° SE
Cosmos 2251 Rocket 3.9 00:15:14 36° WSW 00:17:09 57° WNW 00:22:25 10° NNE
Cosmos 1842 3.1 00:14:13 10° NNW 00:18:05 70° W 00:18:16 68° WSW
YAOGAN 11 4.1 00:17:55 54° SSW 00:18:48 71° WSW 00:23:17 10° NNW
Cosmos 1603 3.6 00:16:07 10° NNW 00:21:46 85° WSW 00:24:40 30° SSE
Cosmos 2263 Rocket 2.2 00:22:51 41° S 00:24:53 75° ESE 00:30:36 10° NNE
Cosmos 1023 Rocket 4.5 00:23:35 44° S 00:25:18 80° ESE 00:30:33 10° NNE
ARGOS Delta rocket 3.8 00:20:51 10° N 00:25:23 64° WNW 00:26:27 48° SW
Meteor 2-12 Rocket 4.5 00:23:20 38° SSW 00:25:49 74° WNW 00:32:00 10° N
UNK 4.1 00:24:12 28° SE 00:26:32 61° ENE 00:31:09 10° N
ASTEX 1 3.7 00:27:54 41° SW 00:29:02 50° W 00:33:50 10° NNW
CZ-4C R/B 3.3 00:26:34 10° NW 00:33:27 45° WSW 00:37:07 29° S
Cosmos 1626 4.4 00:31:04 10° NNE 00:34:01 22° ENE 00:36:55 10° ESE
Meteor 2-9 Rocket 4.0 00:32:36 41° SSW 00:34:33 82° WNW 00:40:02 10° N
Cosmos 2184 Rocket 4.2 00:33:01 35° SW 00:35:43 63° WNW 00:42:03 10° N
Cosmos 1763 Rocket 4.3 00:31:29 10° NNW 00:36:42 51° ENE 00:41:50 10° SE
SL-16 R/B 3.7 00:33:00 10° NW 00:36:57 20° W 00:37:14 20° WSW
Cosmos 2154 Rocket 4.0 00:41:38 34° SSW 00:44:32 76° W 00:50:48 10° N
Cosmos 1743 4.5 00:46:30 19° W 00:47:10 20° WNW 00:50:03 10° NNW
Cosmos 2227 4.1 00:45:19 36° SSW 00:47:44 89° W 00:53:24 10° NNE
Cosmos 407 Rocket 3.6 00:46:25 36° SW 00:48:33 67° WNW 00:53:47 10° NNE
Cosmos 2074 Rocket 4.4 00:46:52 30° SW 00:49:41 49° WNW 00:55:43 10° N
Helios 1B rocket 3.1 00:46:29 10° NNE 00:50:30 48° E 00:52:06 31° SSE
Cosmos 1461 4.0 00:49:08 24° W 00:51:22 40° NW 00:55:32 10° NNE
IDEFIX/ARIANE 42P 4.2 00:47:11 10° NE 00:51:31 26° E 00:55:37 11° SSE
Cosmos 676 Rocket 4.2 00:49:38 33° S 00:52:00 66° ESE 00:57:19 10° NNE
USA 267 4.0 00:48:00 10° ENE 00:54:17 52° NNW 01:00:36 10° W
SL-24 R/B - RUBIN 2 4.2 00:53:46 10° NW 00:58:25 39° WSW 00:59:02 37° SW
Cosmos 1340 2.7 00:54:49 10° N 00:58:35 75° ENE 01:00:05 34° SSE
Lacrosse 5 3.2 00:54:20 10° WNW 00:59:04 38° N 01:03:49 10° ENE
Cosmos 1674 Rocket 4.2 00:55:08 10° NNW 00:59:16 39° W 01:00:12 34° WSW
Cosmos 1975 3.4 00:59:47 36° WSW 01:00:48 44° WNW 01:04:44 10° N
CZ-2D R/B 2.1 00:57:00 10° NNE 01:02:27 83° WNW 01:05:14 30° SSW
SL-8 Rocket 4.2 00:58:26 22° S 01:02:31 65° E 01:08:37 10° NNE
IRS-1D 4.5 00:59:06 10° NNE 01:03:48 40° E 01:07:19 17° SSE
KORONAS-FOTON 3.9 01:00:22 10° N 01:04:19 78° E 01:06:10 30° SSE
Cosmos 1356 Rocket 3.5 01:03:45 40° SW 01:04:50 55° WNW 01:08:47 10° N
Meteor 1-29 4.3 01:02:40 10° NNE 01:05:41 31° E 01:07:07 22° SE
NPP 3.6 01:01:02 10° NNE 01:06:29 88° ESE 01:09:23 29° SSW
NOSS 3-4 (A) 3.8 01:00:16 10° NW 01:07:11 80° SW 01:14:56 10° SE
NOSS 3-4 (C) 3.8 01:00:22 10° NW 01:07:17 80° SW 01:15:02 10° SE
SWARM C 4.4 01:07:05 49° S 01:07:52 85° E 01:11:12 10° N
SWARM A 4.1 01:07:09 50° S 01:07:56 86° E 01:11:16 10° N
Cosmos 1943 3.7 01:03:19 10° NW 01:08:38 41° WSW 01:10:48 29° SSW
Cosmos 2366 rocket 4.4 01:06:21 18° S 01:11:05 63° E 01:17:20 10° NNE
Helios 1A 4.3 01:12:44 23° WSW 01:13:05 24° W 01:16:31 10° NW
USA 290 2.3 01:11:00 10° NNW 01:14:12 54° WSW 01:14:29 51° SW
Cosmos 1733 4.3 01:12:17 19° SSE 01:14:33 38° E 01:18:07 10° NNE
Cosmos 1378 Rocket 4.5 01:10:48 10° NNW 01:14:37 31° W 01:15:32 28° WSW
SL-16 R/B 2.7 01:11:43 25° SSW 01:15:09 53° W 01:21:13 10° NNW
Okean 2 4.4 01:11:32 10° NNW 01:15:13 30° W 01:15:58 28° WSW
ATLAS 2AS CENTAUR R/B 3.0 01:09:10 10° NW 01:16:38 72° NE 01:23:28 10° SE
Cosmos 1674 2.6 01:13:47 10° NNW 01:17:37 77° W 01:19:17 32° S
NOSS 3-3 (A) 4.3 01:13:43 22° WSW 01:17:43 62° NW 01:24:29 10° NE
NOSS 3-3 (C) 4.3 01:13:51 22° WSW 01:17:49 63° NW 01:24:36 10° NE
Cosmos 1140 Rocket 4.2 01:16:11 24° WSW 01:18:56 43° WNW 01:23:56 10° NNE
Iridium 4 Rocket 4.2 01:15:47 10° NNW 01:21:17 48° W 01:24:25 25° SW
Cosmos 1707 3.7 01:19:05 10° NNW 01:22:28 30° W 01:23:04 28° WSW
Cosmos 1025 Rocket 3.5 01:19:09 10° N 01:23:28 60° ENE 01:27:41 10° SSE
Cosmos 1975 Rocket 2.9 01:19:14 10° NNW 01:23:38 81° W 01:26:21 22° S
Cosmos 1238 Rocket 3.8 01:23:58 27° WSW 01:25:10 33° WNW 01:29:05 10° N
Sich 1 Rocket 4.3 01:24:02 16° SSE 01:27:18 50° E 01:31:39 10° NNE
Cosmos 1805 3.5 01:25:36 24° S 01:27:48 64° E 01:31:42 10° NNE
Cosmos 1400 Rocket 3.0 01:25:44 25° S 01:27:53 66° E 01:31:51 10° NNE
Cosmos 1867 4.4 01:28:53 19° S 01:32:23 43° ESE 01:37:34 10° NE
Resurs 1-4 Rocket 2.6 01:29:12 10° N 01:34:16 46° WNW 01:37:21 22° SW
Cosmos 1844 Rocket 3.0 01:30:42 20° S 01:34:36 61° ESE 01:40:12 10° NE
Cosmos 468 Rocket 4.1 01:31:59 10° NNW 01:37:10 57° WSW 01:41:42 13° S
CBERS-1 4.4 01:32:30 10° NNE 01:37:36 60° ESE 01:41:50 15° S
Cosmos 1908 Rocket 4.4 01:36:28 24° WSW 01:38:24 36° WNW 01:42:27 10° N
Cosmos 1727 Rocket 4.0 01:39:27 10° N 01:45:46 89° E 01:52:05 10° S
Cosmos 1315 Rocket 4.2 01:43:43 10° SSE 01:47:24 35° E 01:51:05 10° NNE
Cosmos 2218 Rocket 4.0 01:44:33 18° SSW 01:49:27 72° W 01:55:44 10° N
Cosmos 1818 4.3 01:46:30 10° NW 01:51:19 32° WSW 01:55:45 12° S
SL-08 R/B 4.4 01:47:10 10° SE 01:51:55 50° ENE 01:56:41 10° N
ADEOS Rocket 3.5 01:49:25 20° SW 01:52:24 32° W 01:57:23 10° NNW
ATLAS CENTAUR R/B 3.0 01:51:14 11° W 01:54:20 26° NNW 01:57:51 10° NNE
SL-8 R/B 3.6 01:50:39 10° W 01:55:26 73° S 02:00:15 10° ESE
ADEOS II 2.3 01:51:40 10° N 01:56:51 59° WNW 02:00:45 17° SW
Cosmos 1850 Rocket 4.0 01:54:00 18° SSW 01:58:01 90° WNW 02:03:18 10° NNE
TIMED 4.4 01:56:02 10° NNW 02:00:24 72° WSW 02:04:45 10° SSE
Meteor 1-12 Rocket 4.4 01:56:13 18° SSW 02:00:32 61° WNW 02:06:19 10° N
Spot 1 4.0 01:57:47 10° SSE 02:01:51 79° ENE 02:05:59 10° NNW
SL-14 R/B 3.3 01:58:28 10° NNW 02:02:21 65° W 02:06:09 11° S
DNEPR-1 R/B 3.9 01:59:31 17° SSW 02:03:24 72° SE 02:07:53 10° NE
CZ-4C R/B 3.5 01:59:23 10° SSE 02:03:41 82° WSW 02:08:08 10° NNW
Cosmos 1346 Rocket 2.7 02:01:52 10° NNW 02:05:46 69° W 02:09:38 10° S
Cosmos 841 Rocket 3.5 02:01:56 10° NNW 02:07:09 66° WSW 02:12:22 10° S
Cosmos 1470 3.8 02:05:19 10° SSE 02:09:01 43° E 02:12:44 10° NNE
Cosmos 1626 3.0 02:05:58 10° NNW 02:09:16 31° W 02:11:26 17° SW
Cosmos 2263 Rocket 3.7 02:04:41 10° W 02:09:25 26° NW 02:14:12 10° NNE
Cosmos 1766 3.3 02:07:01 16° SSW 02:10:02 66° WNW 02:13:59 10° N
Meteor 1-28 Rocket 4.1 02:08:04 18° SW 02:10:05 30° W 02:13:23 10° NNW
ARIANE 5 R/B 3.2 02:05:31 10° NNE 02:10:40 56° E 02:15:47 10° S
COSMOS 2406 4.4 02:10:10 10° NNW 02:15:44 47° NE 02:21:18 10° SE
ALOS 4.5 02:12:24 10° NE 02:16:10 24° E 02:19:54 10° SE
Orbus 7S? 3.8 02:09:58 13° WSW 02:16:21 79° NNW 02:19:40 10° NE
Cosmos 2123 Rocket 4.5 02:13:54 10° N 02:20:04 65° ENE 02:26:11 10° SSE
Cosmos 921 Rocket 3.3 02:15:49 10° NNW 02:20:20 78° ENE 02:24:52 10° SSE
Cosmos 1814 Rocket 4.0 02:16:46 10° NNW 02:22:01 74° WSW 02:27:18 10° SSE
Cosmos 2344 4.2 02:15:10 10° WSW 02:22:21 51° NNW 02:30:32 10° NE
Meteor 1-24 Rocket 3.8 02:17:01 10° NNW 02:22:55 77° W 02:28:34 10° S
COSMOS 2441 4.4 02:18:33 10° NNE 02:23:24 88° WNW 02:28:15 10° SSW
RESURS DK-1 4.2 02:20:11 10° NNW 02:24:03 36° NE 02:27:52 10° ESE
Cosmos 44 Rocket 3.6 02:19:35 10° NW 02:24:31 47° WSW 02:29:17 10° SSE
Landsat 4 4.4 02:21:14 10° N 02:24:43 39° WNW 02:27:39 13° SW
Helios 1B rocket 4.1 02:22:22 10° NNW 02:25:27 21° WNW 02:28:23 11° WSW
Cosmos 1821 Rocket 4.0 02:20:18 10° S 02:26:25 83° W 02:32:33 10° N
Cosmos 540 Rocket 4.1 02:25:19 10° NW 02:30:02 36° WSW 02:34:44 10° SSW
IDEFIX/ARIANE 42P 2.9 02:26:20 10° N 02:31:22 51° WNW 02:36:22 10° SW
Cosmos 2208 Rocket 3.9 02:27:11 10° NNW 02:32:26 77° WSW 02:37:35 10° SSE
MSX 3.9 02:30:05 10° N 02:35:46 66° WNW 02:41:27 10° SSW
USA 267 4.2 02:30:29 10° E 02:36:44 50° N 02:43:01 10° WNW
Cosmos 1758 3.9 02:34:35 10° S 02:38:30 57° E 02:42:26 10° NNE
Cosmos 1184 Rocket 3.0 02:35:49 10° NNW 02:38:54 46° W 02:41:58 10° S
CZ-2D R/B 3.6 02:36:08 10° NNE 02:40:13 75° ESE 02:44:22 10° S
Cosmos 1536 Rocket 3.9 02:36:07 10° NNW 02:40:20 45° W 02:44:32 10° SSW
CZ-2D R/B 4.0 02:38:22 10° NNW 02:41:45 17° NW 02:45:08 10° W
Lacrosse 5 3.1 02:38:04 10° WNW 02:42:56 43° NNE 02:47:46 10° E
IRS-1D 4.4 02:38:32 10° N 02:42:59 33° WNW 02:47:28 10° SW
Okean 2 Rocket 3.7 02:40:40 10° SW 02:44:56 41° WNW 02:49:15 10° N
IRS-1C 4.3 02:42:21 10° N 02:47:39 64° WNW 02:52:54 10° SSW
Cosmos 1833 Rocket 2.9 02:43:15 10° NNW 02:48:55 82° ENE 02:54:32 10° SSE
GEOS 3 Rocket 4.0 02:44:26 10° SE 02:49:48 77° NE 02:55:06 10° NW
BREEZE-M DEB (TANK) 3.0 02:49:12 10° W 02:51:46 76° S 02:58:05 10° ESE
Meteor 2-10 4.2 02:47:32 10° SSW 02:52:44 63° WNW 02:58:11 10° N
CZ-4B R/B 3.4 02:50:10 10° NNE 02:54:59 77° WNW 02:59:43 10° SSW
CZ-2C R/B 2.5 02:51:48 10° NNE 02:56:26 78° ESE 03:01:07 10° S
FALCON 9 DEB 4.2 02:57:06 10° SSW 02:59:45 29° SE 03:02:25 10° E
deb Kosmos-1763 3.8 02:56:19 10° NNW 02:59:48 71° WSW 03:03:14 10° SSE
